Home   Weather   Vientiane   Past weeks

Flag for Laos Past Weather in Vientiane, Laos — Yesterday and Last 2 Weeks

Now
77 °F

Thunderstorms. Passing clouds.


Feels Like: 78 °F
Forecast: 77 / 84 °F
Wind: 7 mph from North

Location: Vientiane Airport

Current Time: Jul 25, 2017 at 9:59:17 pm

Latest Report: Jul 25, 2017 at 9:30 pm


Visibility: 2 mi

Pressure: 29.59 "Hg

Humidity: 94%

Dew Point: 75 °F

Location of VientianeLocation

Past Weather in Vientiane — Graph

°F

Vientiane Temperature Yesterday

Maximum temperature yesterday: 93 °F (at 2:30 pm)
Minimum temperature yesterday: 77 °F (at 6:00 am)
Average temperature yesterday: 85 °F

High & Low Weather Summary for the Past Weeks

 TemperatureHumidityPressure
High93 °F (Jul 24, 2:30 pm)100% (Jul 10, 9:30 pm)29.83 "Hg (Jul 10, 9:30 pm)
Low75 °F (Jul 11, 6:00 am)56% (Jul 11, 4:30 pm)29.47 "Hg (Jul 25, 4:30 pm)
Average82 °F84%29.69 "Hg
* Reported Jul 10 8:00 pm — Jul 25 8:30 pm, Vientiane. Weather by CustomWeather, © 2017

Note: Actual official high and low records may vary slightly from our data, if they occured in-between our weather recording intervals... More about our weather records

Advertising

Vientiane Weather History for the Previous 24 Hours

Scroll right to see more
 ConditionsComfort  
Time TempWeatherWind HumidityBarometerVisibility
8:30 pm
Tue, Jul 25
77 °FThunderstorms. Passing clouds.5 mph89%29.56 "Hg2 mi
8:00 pm77 °FThunderstorms. Passing clouds.7 mph89%29.59 "Hg2 mi
7:30 pm77 °FThunderstorms. Partly cloudy.5 mph94%29.56 "Hg2 mi
6:30 pm79 °FThunderstorms. Broken clouds.16 mph94%29.56 "Hg1 mi
6:00 pm86 °FThunderstorms. Partly sunny.7 mph70%29.50 "Hg3 mi
5:30 pm88 °FThunderstorms. Broken clouds.9 mph66%29.50 "Hg4 mi
5:00 pm93 °FThunderstorms. Broken clouds.5 mph59%29.50 "Hg5 mi
4:30 pm93 °FScattered clouds.2 mph63%29.47 "HgN/A
3:30 pm91 °FScattered clouds.2 mph63%29.50 "HgN/A
3:00 pm93 °FScattered clouds.2 mph59%29.53 "HgN/A
2:30 pm93 °FScattered clouds.7 mph59%29.53 "HgN/A
2:00 pm91 °FScattered clouds.5 mph63%29.53 "HgN/A
1:30 pm91 °FScattered clouds.2 mph59%29.56 "HgN/A
1:00 pm91 °FScattered clouds.5 mph63%29.56 "HgN/A
12:30 pm90 °FBroken clouds.5 mph67%29.59 "HgN/A
12:00 pm90 °FBroken clouds.7 mph67%29.59 "HgN/A
11:30 am90 °FBroken clouds.5 mph63%29.62 "HgN/A
11:00 am90 °FBroken clouds.9 mph67%29.62 "HgN/A
10:30 am88 °FScattered clouds.9 mph70%29.62 "HgN/A
10:00 am86 °FScattered clouds.7 mph75%29.65 "HgN/A
9:30 am86 °FBroken clouds.5 mph75%29.65 "HgN/A
9:00 am84 °FBroken clouds.5 mph79%29.65 "HgN/A
8:30 am82 °FPartly sunny.2 mph89%29.65 "HgN/A
8:00 am81 °FPartly sunny.5 mph89%29.62 "HgN/A
7:30 am81 °FScattered clouds.2 mph89%29.62 "HgN/A
7:00 am79 °FScattered clouds.2 mph94%29.59 "HgN/A
6:30 am79 °FScattered clouds.2 mph94%29.59 "HgN/A
6:00 am79 °FPartly sunny.2 mph94%29.59 "HgN/A
11:00 pm
Mon, Jul 24
81 °FFog.2 mph94%29.65 "Hg2 mi
10:30 pm82 °FFog.5 mph89%29.68 "Hg2 mi
10:00 pm82 °FFog.5 mph89%29.68 "Hg2 mi
9:30 pm82 °FFog.2 mph94%29.62 "Hg2 mi
9:00 pm82 °FFog.2 mph94%29.62 "Hg2 mi
Weather by CustomWeather, © 2017

See weather overviewHow to use our weather pages